Location: Brabourne
(51.1333°N, 1.0000°E)
Time: 06:13:17
(UTC+00:00)

NOSS 3-1 (A) - Pass Details

Date: 30 October 2021
Orbit: 721 x 1491 km, 63.4° (Epoch: 22 November)

Event Time Altitude Azimuth Distance (km) Brightness Sun altitude
Rises 17:00:54 0° 202° (SSW) 3,202 6.8 -4.9°
Reaches altitude 10° 17:03:12 10° 196° (SSW) 2,336 6.0 -5.3°
Maximum altitude 17:08:19 50° 123° (ESE) 1,099 3.6 -6.1°
Drops below altitude 10° 17:14:22 10° 50° (NE) 2,753 5.3 -7.0°
Enters shadow 17:16:06 - 47° (NE) 3,395 5.8 -7.2°
